| time (UTC) | temp F | wind direction | speed MPH | gust MPH | rain 1hr in | rain 24hr in | rain mn in | humidity % | barometer mb |
| 20260903133100 | 67 | 271 | 0.0 | 0.0 | 0.00 | 0.14 | 0.14 | 1 | 1014.2 |
| 20260903131555 | 66 | 270 | 0.0 | 2.0 | 0.00 | 0.14 | 0.14 | 1 | 1014.4 |
| 20260903130050 | 66 | 360 | 0.0 | 0.0 | 0.00 | 0.14 | 0.14 | 1 | 1014.6 |
| 20260903124547 | 65 | 270 | 0.0 | 0.0 | 0.00 | 0.14 | 0.14 | 1 | 1014.5 |
| 20260903123043 | 65 | 270 | 0.0 | 0.0 | 0.00 | 0.14 | 0.14 | 1 | 1015.0 |
| 20260903121538 | 64 | 270 | 0.0 | 0.0 | 0.01 | 0.14 | 0.14 | 1 | 1014.9 |
| 20260903120034 | 64 | 360 | 0.0 | 0.0 | 0.01 | 0.14 | 0.14 | 1 | 1015.0 |
| 20260903114530 | 64 | 360 | 0.0 | 0.0 | 0.01 | 0.14 | 0.14 | 1 | 1015.3 |
| 20260903113029 | 64 | 360 | 0.0 | 0.0 | 0.01 | 0.14 | 0.14 | 1 | 1015.3 |
| 20260903111534 | 63 | 198 | 0.0 | 0.0 | 0.00 | 0.13 | 0.13 | 1 | 1015.3 |
| 20260903110017 | 63 | 198 | 0.0 | 0.0 | 0.00 | 0.13 | 0.13 | 1 | 1015.3 |
| 20260903104613 | 63 | 198 | 0.0 | 0.0 | 0.00 | 0.13 | 0.13 | 1 | 1015.5 |
| 20260903103009 | 62 | 163 | 0.0 | 0.0 | 0.00 | 0.13 | 0.13 | 1 | 1015.1 |
| 20260903101504 | 62 | 163 | 0.0 | 0.0 | 0.00 | 0.13 | 0.13 | 1 | 1015.2 |
| 20260903100103 | 62 | 163 | 0.0 | 0.0 | 0.00 | 0.13 | 0.13 | 1 | 1015.0 |
| 20260903094559 | 62 | 163 | 0.0 | 0.0 | 0.00 | 0.13 | 0.13 | 1 | 1014.8 |
| 20260903093106 | 62 | 163 | 0.0 | 0.0 | 0.00 | 0.13 | 0.13 | 1 | 1014.9 |
| 20260903091547 | 62 | 163 | 0.0 | 0.0 | 0.00 | 0.13 | 0.13 | 1 | 1014.9 |
| 20260903090043 | 62 | 163 | 0.0 | 0.0 | 0.00 | 0.13 | 0.13 | 1 | 1015.1 |
| 20260903084538 | 61 | 163 | 0.0 | 0.0 | 0.00 | 0.13 | 0.13 | 1 | 1015.3 |
| 20260903083038 | 61 | 163 | 0.0 | 0.0 | 0.00 | 0.13 | 0.13 | 1 | 1015.5 |
| 20260903081534 | 61 | 163 | 0.0 | 1.0 | 0.01 | 0.13 | 0.13 | 1 | 1015.6 |
| 20260903080026 | 61 | 292 | 0.0 | 0.0 | 0.02 | 0.13 | 0.13 | 1 | 1015.2 |
| 20260903074521 | 61 | 292 | 0.0 | 1.0 | 0.04 | 0.13 | 0.13 | 1 | 1015.6 |
| 20260903073019 | 61 | 250 | 0.0 | 0.0 | 0.06 | 0.13 | 0.13 | 1 | 1015.6 |
| 20260903071514 | 61 | 250 | 0.0 | 1.0 | 0.06 | 0.12 | 0.12 | 1 | 1015.8 |
| 20260903070009 | 60 | 250 | 0.0 | 2.0 | 0.06 | 0.10 | 0.10 | 1 | 1015.6 |
| 20260903064505 | 60 | 251 | 0.0 | 1.0 | 0.06 | 0.09 | 0.09 | 1 | 1015.7 |
| 20260903063001 | 60 | 250 | 0.0 | 1.0 | 0.05 | 0.07 | 0.07 | 1 | 1015.7 |
| 20260903061559 | 60 | 250 | 0.0 | 1.0 | 0.05 | 0.06 | 0.06 | 1 | 1015.9 |
| 20260903060057 | 60 | 250 | 0.0 | 1.0 | 0.03 | 0.04 | 0.04 | 1 | 1016.2 |
| 20260903054548 | 60 | 250 | 0.0 | 1.0 | 0.03 | 0.03 | 0.03 | 1 | 1016.8 |
| 20260903053045 | 60 | 250 | 0.0 | 0.0 | 0.02 | 0.02 | 0.02 | 1 | 1017.0 |
| 20260903051544 | 60 | 250 | 0.0 | 1.0 | 0.01 | 0.01 | 0.01 | 1 | 1017.7 |
| 20260903050043 | 60 | 250 | 0.0 | 3.0 | 0.01 | 0.01 | 0.01 | 1 | 1018.0 |
| 20260903044531 | 60 | 250 | 0.0 | 0.0 | 0.00 | 0.00 | 0.00 | 13 | 1018.0 |
| 20260903043128 | 61 | 250 | 0.0 | 0.0 | 0.00 | 0.00 | 0.00 | 25 | 1018.1 |
| 20260903041527 | 61 | 250 | 0.0 | 1.0 | 0.00 | 0.00 | 0.00 | 30 | 1018.1 |
| 20260903040024 | 61 | 254 | 0.0 | 0.0 | 0.00 | 0.00 | 0.00 | 33 | 1018.1 |
| 20260903034527 | 61 | 254 | 0.0 | 0.0 | 0.00 | 0.00 | 0.00 | 34 | 1018.3 |
| 20260903033015 | 61 | 254 | 0.0 | 2.0 | 0.00 | 0.00 | 0.00 | 34 | 1018.1 |
| 20260903031511 | 61 | 213 | 0.0 | 0.0 | 0.00 | 0.00 | 0.00 | 35 | 1017.7 |
| 20260903030009 | 61 | 213 | 0.0 | 1.0 | 0.00 | 0.00 | 0.00 | 34 | 1018.0 |
| 20260903024503 | 61 | 212 | 0.0 | 0.0 | 0.00 | 0.00 | 0.00 | 36 | 1018.3 |
| 20260903023058 | 61 | 212 | 0.0 | 0.0 | 0.00 | 0.00 | 0.00 | 36 | 1018.9 |
| 20260903021555 | 61 | 212 | 0.0 | 0.0 | 0.00 | 0.00 | 0.00 | 38 | 1019.0 |
| 20260903020052 | 62 | 212 | 0.0 | 0.0 | 0.00 | 0.00 | 0.00 | 40 | 1019.4 |
| 20260903014551 | 62 | 212 | 0.0 | 0.0 | 0.00 | 0.00 | 0.00 | 45 | 1019.8 |
| 20260903013042 | 62 | 211 | 0.0 | 1.0 | 0.00 | 0.00 | 0.00 | 48 | 1019.7 |
| 20260903011555 | 62 | 125 | 0.0 | 0.0 | 0.00 | 0.00 | 0.00 | 53 | 1019.5 |
| 20260903010034 | 62 | 63 | 0.0 | 0.0 | 0.00 | 0.00 | 0.00 | 50 | 1019.2 |
| 20260903004529 | 62 | 63 | 0.0 | 0.0 | 0.00 | 0.00 | 0.00 | 49 | 1018.6 |
| 20260903003024 | 62 | 63 | 0.0 | 0.0 | 0.00 | 0.00 | 0.00 | 50 | 1018.7 |
| 20260903001520 | 63 | 63 | 0.0 | 1.0 | 0.00 | 0.00 | 0.00 | 51 | 1019.0 |
| 20260903000019 | 63 | 63 | 0.0 | 0.0 | 0.00 | 0.00 | 0.00 | 52 | 1019.1 |
| 20260902234516 | 63 | 63 | 0.0 | 0.0 | 0.00 | 0.00 | 0.00 | 55 | 1019.1 |
| 20260902233008 | 63 | 63 | 0.0 | 0.0 | 0.00 | 0.00 | 0.00 | 58 | 1019.3 |
| 20260902231511 | 64 | 63 | 0.0 | 2.0 | 0.00 | 0.00 | 0.00 | 61 | 1019.4 |
| 20260902230100 | 64 | 63 | 0.0 | 0.0 | 0.00 | 0.00 | 0.00 | 61 | 1019.8 |
| 20260902224601 | 65 | 63 | 0.0 | 0.0 | 0.00 | 0.00 | 0.00 | 60 | 1020.3 |
| 20260902223051 | 65 | 63 | 0.0 | 0.0 | 0.00 | 0.00 | 0.00 | 56 | 1020.5 |
| 20260902221649 | 65 | 63 | 0.0 | 0.0 | 0.00 | 0.00 | 0.00 | 53 | 1020.6 |
| 20260902220043 | 65 | 63 | 0.0 | 0.0 | 0.00 | 0.00 | 0.00 | 45 | 1020.4 |
| 20260902214538 | 65 | 63 | 0.0 | 0.0 | 0.00 | 0.00 | 0.00 | 41 | 1020.2 |
| 20260902213034 | 65 | 63 | 0.0 | 1.0 | 0.00 | 0.00 | 0.00 | 40 | 1019.9 |
| 20260902211539 | 65 | 63 | 0.0 | 0.0 | 0.00 | 0.00 | 0.00 | 42 | 1020.3 |
| 20260902210026 | 65 | 63 | 0.0 | 2.0 | 0.00 | 0.00 | 0.00 | 39 | 1020.4 |
| 20260902204522 | 65 | 63 | 0.0 | 2.0 | 0.00 | 0.00 | 0.00 | 37 | 1020.1 |
| 20260902203017 | 65 | 63 | 0.0 | 0.0 | 0.00 | 0.00 | 0.00 | 36 | 1020.0 |
| 20260902201513 | 65 | 63 | 0.0 | 0.0 | 0.00 | 0.00 | 0.00 | 35 | 1020.1 |
| 20260902200009 | 65 | 63 | 0.0 | 3.0 | 0.00 | 0.00 | 0.00 | 27 | 1020.4 |
| 20260902194508 | 64 | 63 | 0.0 | 1.0 | 0.00 | 0.01 | 0.00 | 30 | 1020.3 |
| 20260902193101 | 64 | 63 | 0.0 | 1.0 | 0.00 | 0.01 | 0.00 | 40 | 1020.7 |
| 20260902191557 | 64 | 63 | 0.0 | 1.0 | 0.00 | 0.01 | 0.00 | 43 | 1020.8 |
| 20260902190052 | 65 | 63 | 0.0 | 0.0 | 0.00 | 0.01 | 0.00 | 50 | 1020.9 |
| 20260902184557 | 65 | 63 | 0.0 | 1.0 | 0.00 | 0.02 | 0.00 | 53 | 1020.9 |
| 20260902183043 | 65 | 63 | 0.0 | 0.0 | 0.00 | 0.02 | 0.00 | 61 | 1021.0 |
| 20260902181543 | 65 | 63 | 0.0 | 3.0 | 0.00 | 0.02 | 0.00 | 57 | 1020.7 |
| 20260902180040 | 66 | 59 | 0.0 | 3.0 | 0.00 | 0.02 | 0.00 | 63 | 1020.6 |
| 20260902174531 | 66 | 59 | 0.0 | 2.0 | 0.00 | 0.10 | 0.00 | 61 | 1020.8 |
| 20260902173027 | 65 | 59 | 0.0 | 0.0 | 0.00 | 0.10 | 0.00 | 62 | 1021.0 |
| 20260902171522 | 64 | 59 | 0.0 | 1.0 | 0.00 | 0.10 | 0.00 | 51 | 1021.3 |
| 20260902170020 | 64 | 59 | 0.0 | 4.0 | 0.00 | 0.10 | 0.00 | 43 | 1021.3 |
| 20260902164514 | 63 | 61 | 0.0 | 5.0 | 0.00 | 0.34 | 0.00 | 48 | 1021.2 |
| 20260902163010 | 63 | 53 | 2.0 | 4.0 | 0.00 | 0.34 | 0.00 | 53 | 1021.3 |
| 20260902161508 | 63 | 360 | 1.0 | 5.0 | 0.00 | 0.34 | 0.00 | 54 | 1021.4 |
| 20260902154557 | 62 | 69 | 2.0 | 5.0 | 0.00 | 0.34 | 0.00 | 55 | 1021.5 |
| 20260902153053 | 62 | 69 | 0.0 | 4.0 | 0.00 | 0.34 | 0.00 | 48 | 1021.6 |
| 20260902151549 | 62 | 53 | 1.0 | 3.0 | 0.00 | 0.34 | 0.00 | 46 | 1021.8 |
| 20260902150044 | 61 | 156 | 0.0 | 3.0 | 0.00 | 0.34 | 0.00 | 32 | 1022.2 |
| 20260902144541 | 61 | 63 | 0.0 | 4.0 | 0.00 | 0.35 | 0.00 | 6 | 1022.2 |
| 20260902143039 | 61 | 61 | 1.0 | 4.0 | 0.00 | 0.35 | 0.00 | 1 | 1021.9 |
| 20260902141535 | 60 | 61 | 2.0 | 4.0 | 0.00 | 0.35 | 0.00 | 1 | 1021.9 |
| 20260902140027 | 60 | 61 | 2.0 | 5.0 | 0.00 | 0.35 | 0.00 | 1 | 1021.9 |
| 20260902134534 | 60 | 56 | 0.0 | 7.0 | 0.00 | 0.40 | 0.00 | 1 | 1021.9 |